Starlink 34655

operational
NORAD ID: 65027 Int'l Des: 2025-161 Owner: SPXS Country: US Constellation: starlink
LEOCIRCULAR

关于 Starlink 34655

正在加载描述...

实时位置

正在加载3D地球...

即将过境

高度历史

Altitude vs Time

uPlot chart will show altitude changes over time

两行轨道根数

1 65027U 25161N 26095.52578851 .00026785 00000-0 91389-3 0 9999
2 65027 53.1605 169.8977 0001346 88.2296 271.8858 15.30176063 39438
Epoch: Apr 5, 2026 • Age: 10 hours

当前状态

高度 475.3 km
速度 7.63 km/s
星下点 7.46°N, 166.59°E
发射日期 Jul 30, 2025
运行时间 0.6 years
类型 internet

技术详情

分类 Payload
质量 575.00 kg
干质量 530.00 kg
总质量 575.00 kg
长度 0.30 m
直径 4.10 m
跨度 29.00 m
形状 Box + pan
制造商 SPXS
平台类型 Starlink V2MO
阶段状态 In Orbit
所有者/国家 SPXS/US

大型星座

Loading constellations...